Location: Blangy-Tronville
(49.8790°N, 2.4226°E)
Time: 06:24:56
(UTC+00:00)

SL-12 R/B(2) - Pass Details

Date: 18 November 2025
Orbit: 1173 x 2175 km, 63.4° (Epoch: 10 December)

Event Time Altitude Azimuth Distance (km) Brightness Sun altitude
Rises 17:15:40 0° 209° (SSW) 4,180 7.5 -11.6°
Reaches altitude 10° 17:18:15 10° 207° (SSW) 3,289 6.9 -12.0°
Maximum altitude 17:26:09 71° 125° (SE) 1,531 4.4 -13.2°
Enters shadow 17:35:43 11° 44° (NE) 3,950 6.1 -14.7°
